Wind_Speed
37 37 38 38 38 38 38 39 40 39 40 40 41 42 42 42 42 42 41 41 42 42 42 43 44 45 45 45 45 46 46 46 47 47 47 46 47 47 47 47 48 48 48
37 37 37 37 37 37 37 37 37 38 39 40 40 40 41 41 41 41 41 41 42 42 42 42 43 44 44 44 44 45 46 47 47 45 45 45 46 46 47 47 47 47 47
36 36 36 36 36 36 36 36 37 37 37 38 39 39 39 40 40 40 41 41 41 41 41 42 42 42 43 44 44 45 46 46 45 44 44 44 45 46 46 46 46 46 46
35 35 35 35 35 35 35 35 35 36 36 36 37 37 37 38 38 39 40 40 40 40 40 41 41 42 43 43 44 44 44 44 44 44 44 44 44 44 44 44 45 45 45
33 32 32 32 32 33 33 33 33 34 34 34 35 35 36 36 36 37 38 38 39 39 40 40 41 41 42 43 43 44 44 43 43 43 43 43 43 43 43 44 44 44 44
31 31 31 31 31 31 31 31 30 31 32 33 34 34 34 34 35 35 36 36 37 38 39 40 40 41 42 42 42 43 43 43 42 42 42 42 42 43 43 43 43 42 42
30 30 30 30 30 30 30 29 29 30 30 31 32 32 33 33 33 34 34 35 36 37 37 38 39 39 40 41 41 41 41 42 41 40 40 40 41 41 42 42 41 41 41
29 29 29 29 28 28 28 28 28 29 29 30 30 31 32 32 32 32 33 34 35 36 37 37 38 38 38 38 37 38 38 38 38 38 38 39 39 40 40 40 39 40 40
29 29 29 29 29 29 28 28 27 28 28 29 30 31 31 31 31 32 33 34 35 35 36 37 37 37 36 36 36 36 36 36 36 37 37 37 38 38 38 37 37 37 37
28 28 29 29 29 29 28 28 27 28 28 28 29 30 30 31 31 32 33 33 34 35 35 36 36 36 36 36 35 36 35 35 36 36 36 36 37 37 36 36 36 36 36
28 28 27 28 28 28 27 27 28 28 29 29 30 30 31 31 32 32 33 32 32 33 34 34 34 34 34 33 33 33 34 34 35 35 35 35 35 35 35 35 34 34 34
29 29 28 28 28 28 28 28 29 29 29 30 30 30 31 31 31 31 32 33 32 33 33 32 33 33 33 33 33 32 33 33 34 35 35 35 35 35 35 34 34 34 34
29 29 29 28 28 28 29 29 29 30 30 30 30 31 30 31 31 31 32 33 33 32 31 31 32 32 32 32 32 33 33 34 34 35 34 34 34 34 34 33 33 33 34
29 29 29 28 28 28 29 29 29 29 30 30 30 29 29 30 31 31 32 32 32 32 31 31 31 31 31 32 32 33 33 33 33 33 33 33 33 32 32 31 31 32 32
28 28 28 28 28 28 28 28 28 28 28 29 29 29 29 29 29 29 29 30 30 30 30 30 30 30 30 30 30 31 31 32 32 32 32 31 31 30 30 30 29 29 29
27 27 27 28 28 28 28 28 27 27 27 28 28 28 29 29 29 29 29 28 28 28 28 27 27 27 28 28 29 29 30 30 31 31 31 30 29 28 28 28 27 27 27
26 26 27 27 27 27 27 27 27 27 26 26 27 27 27 28 28 28 28 28 27 27 26 26 26 26 27 27 27 27 28 28 28 28 28 28 28 27 26 26 25 25 25
26 26 26 26 26 26 26 26 26 26 26 26 26 27 27 26 26 26 26 27 26 26 26 25 25 25 25 25 26 26 26 26 26 26 26 26 26 25 24 24 24 24 23
25 25 26 25 25 25 25 25 25 25 25 25 26 25 25 25 25 25 25 25 25 25 25 25 25 24 24 24 24 25 25 24 24 23 23 22 22 22 22 21 21 21 21
24 24 24 24 23 23 23 23 24 24 24 24 24 23 23 24 24 24 24 24 24 24 24 24 24 24 24 23 23 23 22 22 21 20 20 20 20 20 20 19 19 19 19
22 22 23 22 21 21 21 22 22 22 22 22 22 22 22 23 23 23 23 22 22 22 22 22 22 22 22 22 22 21 20 19 19 19 19 19 19 19 19 18 18 18 18
21 21 21 21 21 20 20 20 20 20 20 20 20 20 20 20 21 21 21 20 20 21 20 21 20 20 20 19 19 18 18 18 18 18 18 18 18 18 17 16 16 16 16
20 20 19 20 20 19 19 19 19 19 19 19 18 18 18 18 19 19 19 19 19 19 19 18 18 18 18 18 17 17 17 17 17 17 17 16 16 16 16 15 14 13 13
19 18 18 18 18 18 18 18 18 18 18 18 18 18 18 18 17 17 17 17 17 17 17 17 17 17 17 16 16 16 16 16 16 15 15 15 15 15 14 14 13 12 12
18 17 17 17 17 17 17 17 17 17 16 16 16 16 16 16 16 16 16 16 16 16 16 16 16 15 14 15 15 15 15 15 15 15 14 14 14 13 13 12 11 11 11
16 16 15 16 16 16 15 15 15 15 15 15 15 15 15 15 14 14 15 15 15 15 14 14 14 14 14 15 15 15 14 14 14 13 13 13 13 13 12 11 11 10 10
Wind_Direction
261 262 264 265 267 268 267 266 265 264 263 263 264 264 265 265 264 264 265 266 267 268 268 268 269 270 271 273 274 275 276 278 279 278 278 277 277 278 278 277 277 277 277
263 264 264 265 267 267 267 266 265 264 264 264 264 264 264 265 264 264 265 267 267 268 269 269 270 271 272 273 275 277 278 279 279 279 279 278 278 279 279 278 277 277 276
263 264 265 266 266 267 266 265 265 265 265 265 265 264 264 264 263 264 265 267 268 269 269 270 271 271 273 274 276 278 279 280 280 279 279 278 278 279 279 278 277 278 278
262 264 265 266 267 266 264 264 264 265 265 265 265 264 264 263 263 265 267 268 268 270 270 271 272 273 275 276 277 278 279 280 280 279 278 278 279 280 279 278 278 278 279
262 264 265 266 265 264 264 264 264 265 264 264 264 263 263 263 264 266 268 268 269 270 270 271 274 275 276 277 278 279 280 280 280 279 278 279 279 279 278 279 279 279 280
263 263 263 264 264 264 264 264 264 264 264 264 264 264 263 263 265 266 268 269 270 271 272 274 275 276 277 278 279 280 280 281 280 279 279 279 279 279 279 280 281 281 281
263 262 263 262 263 264 264 263 262 263 264 264 264 264 263 264 266 268 268 269 271 274 275 276 276 278 279 280 280 280 281 282 281 281 281 281 281 281 281 280 281 281 281
264 264 262 261 262 262 261 262 262 263 264 266 266 266 265 265 266 268 270 270 272 274 275 276 277 278 280 282 282 282 283 282 282 283 282 282 282 281 282 282 282 282 283
264 264 262 262 263 264 263 263 263 265 266 267 268 268 267 266 267 268 269 271 273 276 276 276 277 278 280 282 283 283 283 282 283 284 283 283 283 283 283 283 283 283 283
265 264 262 261 262 263 263 262 262 264 265 267 269 269 268 267 267 269 271 273 274 276 277 276 276 278 279 281 282 283 283 283 284 285 285 284 284 284 284 284 283 283 284
263 263 262 261 262 263 263 262 262 264 266 268 269 269 269 268 269 270 272 274 275 277 277 277 277 278 279 280 282 283 283 283 284 285 286 286 286 286 285 283 283 283 284
261 260 260 261 263 264 264 264 265 268 270 270 270 269 269 268 269 272 272 274 276 278 278 278 279 278 279 280 282 283 285 285 286 288 287 286 285 285 285 283 283 284 284
260 260 260 260 262 263 264 264 265 267 269 270 271 270 270 269 271 273 274 275 277 278 278 279 280 279 279 281 282 283 285 286 287 288 288 287 285 285 284 282 282 283 284
260 260 260 260 262 264 265 265 266 267 268 269 271 270 270 271 272 273 274 276 277 278 277 278 278 278 279 281 281 282 283 285 286 287 288 288 286 286 285 283 283 283 285
261 261 260 261 263 264 265 265 265 267 268 269 269 269 270 271 272 273 274 276 276 277 278 279 279 279 280 282 282 282 282 284 286 288 288 288 287 287 286 285 284 285 285
261 261 261 262 263 265 264 265 265 265 266 267 268 269 271 271 272 273 275 276 277 278 278 279 280 280 281 282 283 284 285 287 287 288 287 287 287 288 288 286 285 286 286
261 262 263 264 265 265 264 264 265 266 267 268 269 270 273 274 273 273 274 275 275 276 278 280 280 282 283 283 284 285 287 288 289 290 289 289 288 289 289 287 286 285 285
262 263 263 264 264 265 264 264 264 265 267 269 270 272 274 275 274 273 274 275 274 275 277 279 281 282 283 285 286 287 289 290 292 292 291 291 290 290 289 287 286 286 285
262 263 263 265 265 265 264 264 263 264 267 269 270 271 272 273 273 272 273 274 274 275 276 278 280 282 284 286 288 289 290 291 292 293 293 294 293 292 291 289 288 287 285
263 264 263 265 265 264 263 263 264 265 266 267 269 271 274 275 274 272 273 273 274 276 278 279 280 281 284 287 289 290 290 290 291 294 296 297 296 295 293 290 289 287 285
264 264 262 262 264 264 263 262 263 263 263 265 268 271 273 274 273 272 272 273 274 276 277 279 281 282 284 287 289 289 288 288 291 295 298 298 297 297 294 291 288 286 285
262 262 261 261 262 263 262 261 260 259 262 264 267 270 272 273 273 272 272 273 275 276 277 279 282 283 285 286 287 287 287 288 292 295 297 298 298 297 296 293 290 287 286
263 262 260 260 259 258 257 257 258 260 263 265 268 271 273 274 274 272 272 274 276 276 278 280 281 283 284 284 286 288 289 290 293 295 296 297 297 298 297 294 291 289 287
261 259 258 258 259 258 258 258 258 260 262 265 267 271 274 275 274 273 273 274 275 276 278 281 282 282 282 283 285 288 289 291 292 293 294 296 297 297 296 294 290 288 290
257 256 257 258 260 259 259 258 257 258 260 264 267 270 272 273 274 273 273 274 275 276 278 280 281 281 282 283 285 287 288 289 291 291 292 294 296 297 295 293 291 292 293
253 253 255 256 255 256 257 256 255 256 259 263 267 271 272 273 274 273 273 273 272 274 277 279 281 282 283 284 284 286 288 289 291 290 292 294 296 297 294 291 290 292 294
Height
5628 5628 5628 5629 5628 5628 5629 5629 5630 5630 5631 5631 5632 5633 5634 5635 5635 5636 5637 5638 5639 5639 5639 5639 5639 5639 5638 5637 5636 5634 5633 5631 5629 5629 5627 5625 5623 5621 5619 5618 5616 5615 5614
5617 5618 5618 5618 5618 5618 5618 5619 5619 5619 5620 5621 5621 5622 5623 5624 5624 5625 5626 5627 5628 5628 5628 5628 5628 5627 5627 5626 5624 5622 5621 5619 5617 5616 5615 5613 5611 5608 5606 5605 5603 5602 5600
5607 5607 5608 5608 5608 5608 5608 5608 5608 5609 5609 5610 5611 5611 5612 5613 5613 5614 5615 5616 5617 5617 5617 5617 5617 5616 5615 5614 5613 5611 5609 5606 5604 5603 5602 5600 5599 5596 5594 5592 5590 5589 5587
5597 5597 5598 5598 5598 5598 5598 5598 5598 5598 5599 5600 5600 5601 5602 5603 5604 5605 5605 5606 5606 5606 5607 5606 5606 5605 5604 5603 5601 5599 5597 5595 5593 5592 5590 5589 5587 5584 5582 5580 5578 5576 5574
5587 5588 5588 5588 5588 5588 5588 5588 5588 5589 5589 5590 5591 5592 5592 5593 5595 5595 5596 5596 5596 5596 5596 5596 5595 5594 5593 5591 5589 5587 5585 5583 5581 5580 5578 5577 5574 5572 5571 5568 5567 5565 5563
5579 5579 5579 5579 5579 5579 5579 5579 5579 5580 5581 5581 5582 5583 5584 5585 5586 5586 5587 5587 5587 5587 5586 5586 5585 5583 5582 5580 5578 5576 5574 5572 5570 5568 5567 5565 5563 5561 5559 5557 5555 5554 5552
5570 5570 5570 5571 5571 5571 5570 5571 5571 5572 5572 5573 5573 5574 5575 5576 5577 5577 5577 5578 5577 5577 5576 5575 5574 5573 5571 5569 5567 5565 5563 5561 5559 5558 5556 5554 5552 5550 5548 5546 5544 5542 5540
5562 5562 5562 5562 5563 5563 5563 5563 5563 5564 5564 5565 5565 5566 5567 5567 5568 5569 5569 5569 5568 5567 5567 5565 5564 5562 5560 5558 5556 5555 5553 5551 5549 5547 5546 5544 5541 5539 5537 5535 5533 5531 5530
5554 5554 5554 5554 5555 5555 5555 5556 5556 5556 5557 5557 5558 5558 5559 5559 5559 5560 5560 5559 5559 5558 5557 5555 5554 5552 5551 5548 5547 5545 5543 5541 5539 5537 5536 5533 5531 5529 5527 5525 5523 5521 5519
5546 5546 5546 5546 5547 5548 5548 5548 5548 5549 5549 5550 5550 5550 5550 5551 5551 5551 5551 5551 5550 5549 5548 5546 5544 5543 5541 5539 5538 5536 5534 5532 5530 5528 5526 5523 5521 5519 5516 5514 5513 5511 5509
5538 5538 5538 5539 5539 5540 5540 5541 5541 5542 5542 5542 5542 5542 5542 5542 5542 5542 5542 5541 5540 5539 5538 5536 5535 5534 5532 5530 5528 5527 5525 5523 5520 5518 5516 5514 5511 5509 5507 5505 5503 5501 5500
5530 5530 5531 5531 5532 5532 5533 5533 5534 5534 5534 5534 5534 5534 5534 5533 5534 5533 5533 5532 5531 5530 5529 5528 5526 5525 5523 5521 5519 5518 5516 5513 5511 5509 5507 5504 5502 5500 5498 5495 5494 5492 5490
5522 5522 5523 5523 5524 5524 5525 5526 5526 5526 5526 5526 5526 5525 5525 5525 5525 5525 5524 5523 5522 5521 5520 5518 5517 5515 5514 5512 5511 5509 5507 5504 5502 5500 5497 5495 5492 5490 5488 5486 5485 5483 5481
5513 5514 5514 5515 5516 5516 5517 5517 5517 5518 5518 5518 5518 5517 5517 5517 5516 5516 5515 5514 5513 5511 5510 5509 5508 5506 5505 5503 5502 5500 5498 5495 5493 5491 5488 5486 5483 5481 5479 5478 5476 5474 5473
5504 5505 5506 5507 5507 5508 5508 5509 5509 5509 5510 5510 5510 5509 5509 5509 5508 5507 5506 5505 5504 5503 5501 5500 5499 5497 5496 5494 5493 5491 5489 5487 5485 5482 5480 5477 5475 5473 5471 5469 5468 5466 5464
5496 5497 5498 5498 5499 5499 5499 5500 5500 5501 5501 5501 5501 5501 5500 5500 5500 5499 5498 5497 5496 5494 5493 5492 5490 5489 5487 5486 5484 5482 5480 5478 5476 5474 5472 5470 5468 5465 5463 5462 5460 5459 5457
5488 5489 5489 5490 5490 5491 5491 5492 5492 5493 5493 5493 5492 5492 5492 5492 5491 5490 5490 5489 5488 5486 5485 5484 5483 5481 5480 5478 5476 5474 5473 5470 5468 5466 5464 5462 5460 5458 5456 5455 5453 5452 5450
5480 5481 5481 5482 5482 5482 5483 5484 5484 5485 5485 5485 5485 5484 5484 5483 5483 5482 5481 5481 5480 5479 5478 5477 5475 5474 5472 5470 5469 5467 5465 5463 5461 5459 5456 5455 5453 5451 5449 5447 5446 5445 5443
5473 5473 5474 5474 5474 5475 5475 5476 5476 5477 5477 5477 5477 5476 5476 5475 5475 5474 5473 5473 5472 5471 5470 5469 5468 5467 5465 5463 5462 5460 5458 5456 5454 5452 5450 5448 5446 5444 5442 5441 5439 5438 5437
5465 5466 5466 5466 5467 5467 5467 5468 5469 5469 5469 5470 5469 5469 5468 5468 5467 5466 5466 5465 5465 5464 5463 5462 5461 5460 5458 5457 5455 5453 5452 5450 5448 5446 5444 5442 5440 5438 5436 5435 5433 5432 5431
5458 5459 5459 5459 5460 5460 5460 5461 5461 5461 5462 5462 5462 5462 5461 5460 5460 5459 5459 5459 5458 5457 5456 5455 5454 5453 5452 5450 5449 5447 5446 5444 5442 5441 5439 5437 5435 5433 5431 5429 5428 5427 5426
5451 5452 5452 5453 5453 5453 5454 5454 5454 5455 5455 5455 5455 5455 5454 5454 5453 5453 5452 5452 5451 5451 5450 5449 5448 5446 5445 5444 5443 5441 5440 5439 5437 5436 5434 5432 5430 5428 5426 5425 5423 5422 5421
5445 5445 5446 5446 5447 5447 5447 5448 5448 5449 5449 5449 5450 5449 5449 5448 5447 5447 5447 5446 5445 5445 5444 5443 5442 5441 5440 5438 5437 5436 5435 5434 5432 5431 5429 5427 5426 5424 5422 5420 5419 5418 5417
5438 5439 5439 5440 5441 5441 5442 5442 5443 5443 5443 5444 5444 5444 5443 5443 5442 5442 5441 5441 5440 5439 5438 5437 5437 5436 5434 5433 5432 5431 5430 5429 5427 5426 5424 5423 5421 5420 5418 5417 5415 5414 5413
5433 5433 5434 5435 5435 5436 5436 5437 5437 5438 5438 5438 5438 5439 5438 5438 5437 5437 5436 5435 5435 5434 5433 5432 5432 5431 5430 5429 5428 5427 5425 5424 5423 5422 5420 5419 5417 5416 5414 5413 5412 5411 5410
5427 5428 5429 5429 5430 5430 5431 5432 5432 5433 5433 5434 5434 5434 5433 5433 5432 5432 5431 5431 5430 5429 5429 5428 5427 5426 5425 5424 5423 5422 5421 5420 5419 5417 5416 5415 5414 5412 5411 5410 5409 5408 5407